Time,TemperatureF,DewpointF,PressureIn,WindDirection,WindDirectionDegrees,WindSpeedMPH,WindSpeedGustMPH,Humidity,HourlyPrecipIn,Conditions,Clouds,dailyrainin,SoftwareType,DateUTC
2013-01-24 00:01:00,55.2,52.0,30.30,SW,236,1.0,-999.0,90,-99.99,,,0.00,weatherlink.com 1.10,2013-01-24 06:01:00,
2013-01-24 00:17:00,54.8,52.0,30.30,SW,236,0.0,-999.0,90,-99.99,,,0.00,weatherlink.com 1.10,2013-01-24 06:17:00,
2013-01-24 00:30:00,54.7,52.0,30.30,SW,236,0.0,-999.0,90,-99.99,,,0.00,weatherlink.com 1.10,2013-01-24 06:30:00,
2013-01-24 00:45:00,54.1,51.0,30.30,SW,236,0.0,-999.0,90,-99.99,,,0.00,weatherlink.com 1.10,2013-01-24 06:45:00,
2013-01-24 01:00:00,53.2,51.0,30.30,SW,236,0.0,-999.0,92,-99.99,,,0.00,weatherlink.com 1.10,2013-01-24 07:00:00,
2013-01-24 01:17:00,52.1,50.0,30.30,SW,236,0.0,-999.0,92,-99.99,,,0.00,weatherlink.com 1.10,2013-01-24 07:17:00,
2013-01-24 01:31:00,51.3,49.0,30.30,SW,236,0.0,-999.0,93,-99.99,,,0.00,weatherlink.com 1.10,2013-01-24 07:31:00,
2013-01-24 01:46:00,50.7,49.0,30.30,SW,236,0.0,-999.0,94,-99.99,,,0.00,weatherlink.com 1.10,2013-01-24 07:46:00,
2013-01-24 02:02:00,50.0,48.0,30.30,SW,236,0.0,-999.0,94,-99.99,,,0.00,weatherlink.com 1.10,2013-01-24 08:02:00,
2013-01-24 02:16:00,49.5,48.0,30.29,SW,236,0.0,-999.0,95,-99.99,,,0.00,weatherlink.com 1.10,2013-01-24 08:16:00,
2013-01-24 02:31:00,48.9,48.0,30.29,SW,236,0.0,-999.0,95,-99.99,,,0.00,weatherlink.com 1.10,2013-01-24 08:31:00,
2013-01-24 02:46:00,48.5,48.0,30.29,SW,236,0.0,-999.0,96,-99.99,,,0.00,weatherlink.com 1.10,2013-01-24 08:46:00,
2013-01-24 03:01:00,48.0,47.0,30.28,SW,236,0.0,-999.0,96,-99.99,,,0.00,weatherlink.com 1.10,2013-01-24 09:01:00,
2013-01-24 03:16:00,47.7,47.0,30.28,SW,236,0.0,-999.0,96,-99.99,,,0.00,weatherlink.com 1.10,2013-01-24 09:16:00,
2013-01-24 03:31:00,47.3,46.0,30.28,SW,236,0.0,-999.0,96,-99.99,,,0.00,weatherlink.com 1.10,2013-01-24 09:31:00,
2013-01-24 03:46:00,47.0,46.0,30.29,SW,236,0.0,-999.0,96,-99.99,,,0.00,weatherlink.com 1.10,2013-01-24 09:46:00,
2013-01-24 04:01:00,46.6,46.0,30.29,SW,236,0.0,-999.0,96,-99.99,,,0.00,weatherlink.com 1.10,2013-01-24 10:01:00,
2013-01-24 04:16:00,46.3,45.0,30.29,SW,236,0.0,-999.0,96,-99.99,,,0.00,weatherlink.com 1.10,2013-01-24 10:16:00,
2013-01-24 04:31:00,46.0,45.0,30.29,SW,236,0.0,-999.0,97,-99.99,,,0.00,weatherlink.com 1.10,2013-01-24 10:31:00,
2013-01-24 04:46:00,45.6,45.0,30.30,SW,236,0.0,-999.0,97,-99.99,,,0.00,weatherlink.com 1.10,2013-01-24 10:46:00,
2013-01-24 05:01:00,45.5,45.0,30.29,SW,236,0.0,-999.0,97,-99.99,,,0.00,weatherlink.com 1.10,2013-01-24 11:01:00,
2013-01-24 05:16:00,45.2,44.0,30.29,SW,236,0.0,-999.0,97,-99.99,,,0.00,weatherlink.com 1.10,2013-01-24 11:16:00,
2013-01-24 05:31:00,44.8,44.0,30.30,SW,236,0.0,-999.0,97,-99.99,,,0.00,weatherlink.com 1.10,2013-01-24 11:31:00,
2013-01-24 05:47:00,44.5,44.0,30.31,SW,236,0.0,-999.0,97,-99.99,,,0.00,weatherlink.com 1.10,2013-01-24 11:47:00,
2013-01-24 06:01:00,44.2,43.0,30.32,SW,236,0.0,-999.0,97,-99.99,,,0.00,weatherlink.com 1.10,2013-01-24 12:01:00,
2013-01-24 06:16:00,44.1,43.0,30.32,SW,236,0.0,-999.0,97,-99.99,,,0.00,weatherlink.com 1.10,2013-01-24 12:16:00,
2013-01-24 06:32:00,43.9,43.0,30.31,SW,236,0.0,-999.0,97,-99.99,,,0.00,weatherlink.com 1.10,2013-01-24 12:32:00,
2013-01-24 06:47:00,43.7,43.0,30.32,SW,236,0.0,-999.0,97,-99.99,,,0.00,weatherlink.com 1.10,2013-01-24 12:47:00,
2013-01-24 07:02:00,43.6,43.0,30.32,SW,236,0.0,-999.0,97,-99.99,,,0.00,weatherlink.com 1.10,2013-01-24 13:02:00,
2013-01-24 07:17:00,43.6,43.0,30.32,SW,236,0.0,-999.0,98,-99.99,,,0.00,weatherlink.com 1.10,2013-01-24 13:17:00,
2013-01-24 07:32:00,43.8,43.0,30.32,SW,236,0.0,-999.0,98,-99.99,,,0.00,weatherlink.com 1.10,2013-01-24 13:32:00,
2013-01-24 07:47:00,44.5,44.0,30.32,SW,236,0.0,-999.0,99,-99.99,,,0.00,weatherlink.com 1.10,2013-01-24 13:47:00,
2013-01-24 08:02:00,45.8,46.0,30.33,SW,236,0.0,-999.0,99,-99.99,,,0.00,weatherlink.com 1.10,2013-01-24 14:02:00,
2013-01-24 08:17:00,47.0,47.0,30.33,SW,236,0.0,-999.0,99,-99.99,,,0.00,weatherlink.com 1.10,2013-01-24 14:17:00,
2013-01-24 08:32:00,50.0,50.0,30.33,SW,236,0.0,-999.0,100,-99.99,,,0.00,weatherlink.com 1.10,2013-01-24 14:32:00,
2013-01-24 08:47:00,52.7,53.0,30.33,SW,236,0.0,-999.0,100,-99.99,,,0.00,weatherlink.com 1.10,2013-01-24 14:47:00,
2013-01-24 09:02:00,55.3,55.0,30.34,SW,236,1.0,-999.0,100,-99.99,,,0.00,weatherlink.com 1.10,2013-01-24 15:02:00,
2013-01-24 09:17:00,57.7,58.0,30.34,SW,236,0.0,-999.0,100,-99.99,,,0.00,weatherlink.com 1.10,2013-01-24 15:17:00,
2013-01-24 09:33:00,60.6,57.0,30.34,SW,225,3.0,-999.0,89,-99.99,,,0.00,weatherlink.com 1.10,2013-01-24 15:33:00,
2013-01-24 09:47:00,62.6,58.0,30.35,SW,217,0.0,-999.0,84,-99.99,,,0.00,weatherlink.com 1.10,2013-01-24 15:47:00,
2013-01-24 10:02:00,63.8,58.0,30.34,WSW,251,0.0,-999.0,81,-99.99,,,0.00,weatherlink.com 1.10,2013-01-24 16:02:00,
2013-01-24 10:17:00,64.9,59.0,30.34,SSW,196,0.0,-999.0,80,-99.99,,,0.00,weatherlink.com 1.10,2013-01-24 16:17:00,
2013-01-24 10:32:00,65.3,59.0,30.34,South,180,0.0,-999.0,79,-99.99,,,0.00,weatherlink.com 1.10,2013-01-24 16:32:00,
2013-01-24 10:47:00,65.3,58.0,30.33,SW,216,4.0,-999.0,77,-99.99,,,0.00,weatherlink.com 1.10,2013-01-24 16:47:00,
2013-01-24 11:02:00,65.6,58.0,30.33,SW,225,3.0,-999.0,76,-99.99,,,0.00,weatherlink.com 1.10,2013-01-24 17:02:00,
2013-01-24 11:17:00,66.2,58.0,30.32,West,259,0.0,-999.0,76,-99.99,,,0.00,weatherlink.com 1.10,2013-01-24 17:17:00,
2013-01-24 11:32:00,66.9,58.0,30.32,WSW,250,2.0,-999.0,74,-99.99,,,0.00,weatherlink.com 1.10,2013-01-24 17:32:00,
2013-01-24 11:49:00,67.2,59.0,30.31,South,190,7.0,-999.0,74,-99.99,,,0.00,weatherlink.com 1.10,2013-01-24 17:49:00,
2013-01-24 12:03:00,67.0,59.0,30.30,SSE,165,2.0,-999.0,76,-99.99,,,0.00,weatherlink.com 1.10,2013-01-24 18:03:00,
2013-01-24 12:18:00,67.7,59.0,30.30,South,181,3.0,-999.0,73,-99.99,,,0.00,weatherlink.com 1.10,2013-01-24 18:18:00,
2013-01-24 12:33:00,67.2,58.0,30.28,SW,215,4.0,-999.0,73,-99.99,,,0.00,weatherlink.com 1.10,2013-01-24 18:33:00,
2013-01-24 12:50:00,67.3,59.0,30.27,WSW,254,0.0,-999.0,74,-99.99,,,0.00,weatherlink.com 1.10,2013-01-24 18:50:00,
2013-01-24 13:03:00,68.1,59.0,30.27,SW,232,3.0,-999.0,73,-99.99,,,0.00,weatherlink.com 1.10,2013-01-24 19:03:00,
2013-01-24 13:19:00,68.3,59.0,30.26,WSW,244,3.0,-999.0,73,-99.99,,,0.00,weatherlink.com 1.10,2013-01-24 19:19:00,
2013-01-24 13:33:00,68.6,59.0,30.26,WSW,249,4.0,-999.0,72,-99.99,,,0.00,weatherlink.com 1.10,2013-01-24 19:33:00,
2013-01-24 13:48:00,68.0,59.0,30.25,SW,233,1.0,-999.0,73,-99.99,,,0.00,weatherlink.com 1.10,2013-01-24 19:48:00,
2013-01-24 14:03:00,68.0,59.0,30.25,SSW,205,7.0,-999.0,73,-99.99,,,0.00,weatherlink.com 1.10,2013-01-24 20:03:00,
2013-01-24 14:18:00,68.3,59.0,30.24,WSW,248,2.0,-999.0,73,-99.99,,,0.00,weatherlink.com 1.10,2013-01-24 20:18:00,
2013-01-24 14:33:00,68.6,59.0,30.23,South,191,6.0,-999.0,72,-99.99,,,0.00,weatherlink.com 1.10,2013-01-24 20:33:00,
2013-01-24 14:48:00,68.7,59.0,30.23,SSW,205,3.0,-999.0,72,-99.99,,,0.00,weatherlink.com 1.10,2013-01-24 20:48:00,
2013-01-24 15:04:00,68.2,59.0,30.23,South,178,1.0,-999.0,73,-99.99,,,0.00,weatherlink.com 1.10,2013-01-24 21:04:00,
2013-01-24 15:18:00,67.9,60.0,30.23,SSW,202,4.0,-999.0,76,-99.99,,,0.00,weatherlink.com 1.10,2013-01-24 21:18:00,
2013-01-24 15:33:00,66.8,60.0,30.23,SSE,166,2.0,-999.0,78,-99.99,,,0.00,weatherlink.com 1.10,2013-01-24 21:33:00,
2013-01-24 15:49:00,65.8,59.0,30.23,South,177,2.0,-999.0,79,-99.99,,,0.00,weatherlink.com 1.10,2013-01-24 21:49:00,
2013-01-24 16:03:00,64.9,59.0,30.23,SW,236,2.0,-999.0,80,-99.99,,,0.00,weatherlink.com 1.10,2013-01-24 22:03:00,
2013-01-24 16:18:00,64.7,58.0,30.23,SSW,209,0.0,-999.0,80,-99.99,,,0.00,weatherlink.com 1.10,2013-01-24 22:18:00,
2013-01-24 16:33:00,64.1,58.0,30.23,SW,215,4.0,-999.0,81,-99.99,,,0.00,weatherlink.com 1.10,2013-01-24 22:33:00,
2013-01-24 16:48:00,63.8,58.0,30.23,SSW,201,3.0,-999.0,81,-99.99,,,0.00,weatherlink.com 1.10,2013-01-24 22:48:00,
2013-01-24 17:04:00,63.3,58.0,30.23,SW,221,0.0,-999.0,82,-99.99,,,0.00,weatherlink.com 1.10,2013-01-24 23:04:00,
2013-01-24 17:18:00,62.9,58.0,30.23,South,188,0.0,-999.0,83,-99.99,,,0.00,weatherlink.com 1.10,2013-01-24 23:18:00,
2013-01-24 17:33:00,62.4,58.0,30.24,SW,214,1.0,-999.0,84,-99.99,,,0.00,weatherlink.com 1.10,2013-01-24 23:33:00,
2013-01-24 17:50:00,62.0,58.0,30.24,SSW,205,0.0,-999.0,85,-99.99,,,0.00,weatherlink.com 1.10,2013-01-24 23:50:00,
2013-01-24 18:04:00,61.8,58.0,30.24,SSW,213,0.0,-999.0,86,-99.99,,,0.00,weatherlink.com 1.10,2013-01-25 00:04:00,
2013-01-24 18:19:00,61.7,57.0,30.25,SW,217,0.0,-999.0,85,-99.99,,,0.00,weatherlink.com 1.10,2013-01-25 00:19:00,
2013-01-24 18:34:00,61.7,57.0,30.25,SSW,205,2.0,-999.0,85,-99.99,,,0.00,weatherlink.com 1.10,2013-01-25 00:34:00,
2013-01-24 18:48:00,61.4,57.0,30.26,SW,227,0.0,-999.0,86,-99.99,,,0.00,weatherlink.com 1.10,2013-01-25 00:48:00,
2013-01-24 19:05:00,61.5,57.0,30.26,WSW,240,3.0,-999.0,85,-99.99,,,0.00,weatherlink.com 1.10,2013-01-25 01:05:00,
2013-01-24 19:19:00,61.7,57.0,30.27,SW,221,3.0,-999.0,85,-99.99,,,0.00,weatherlink.com 1.10,2013-01-25 01:19:00,
2013-01-24 19:34:00,61.8,57.0,30.26,SW,230,0.0,-999.0,85,-99.99,,,0.00,weatherlink.com 1.10,2013-01-25 01:34:00,
2013-01-24 19:49:00,61.5,57.0,30.26,SSW,213,0.0,-999.0,86,-99.99,,,0.00,weatherlink.com 1.10,2013-01-25 01:49:00,
2013-01-24 20:04:00,61.3,57.0,30.26,WSW,245,1.0,-999.0,87,-99.99,,,0.00,weatherlink.com 1.10,2013-01-25 02:04:00,
2013-01-24 20:18:00,61.1,58.0,30.26,West,263,1.0,-999.0,88,-99.99,,,0.00,weatherlink.com 1.10,2013-01-25 02:18:00,
2013-01-24 20:34:00,60.8,57.0,30.26,SW,236,1.0,-999.0,87,-99.99,,,0.00,weatherlink.com 1.10,2013-01-25 02:34:00,
2013-01-24 20:49:00,60.9,56.0,30.26,WSW,252,1.0,-999.0,85,-99.99,,,0.00,weatherlink.com 1.10,2013-01-25 02:49:00,
2013-01-24 21:04:00,61.2,57.0,30.27,WSW,241,0.0,-999.0,85,-99.99,,,0.00,weatherlink.com 1.10,2013-01-25 03:04:00,
2013-01-24 21:19:00,60.8,56.0,30.27,SW,236,0.0,-999.0,85,-99.99,,,0.00,weatherlink.com 1.10,2013-01-25 03:19:00,
2013-01-24 21:34:00,59.5,56.0,30.27,SW,236,0.0,-999.0,87,-99.99,,,0.00,weatherlink.com 1.10,2013-01-25 03:34:00,
2013-01-24 21:50:00,59.1,56.0,30.26,SW,228,0.0,-999.0,90,-99.99,,,0.00,weatherlink.com 1.10,2013-01-25 03:50:00,
2013-01-24 22:04:00,59.5,57.0,30.26,SW,219,1.0,-999.0,90,-99.99,,,0.00,weatherlink.com 1.10,2013-01-25 04:04:00,
2013-01-24 22:19:00,59.4,57.0,30.27,South,186,1.0,-999.0,90,-99.99,,,0.00,weatherlink.com 1.10,2013-01-25 04:19:00,
2013-01-24 22:34:00,59.0,56.0,30.27,WSW,249,0.0,-999.0,91,-99.99,,,0.00,weatherlink.com 1.10,2013-01-25 04:34:00,
2013-01-24 22:49:00,59.0,57.0,30.27,SW,232,2.0,-999.0,92,-99.99,,,0.00,weatherlink.com 1.10,2013-01-25 04:49:00,
2013-01-24 23:04:00,58.8,57.0,30.27,SW,233,2.0,-999.0,92,-99.99,,,0.00,weatherlink.com 1.10,2013-01-25 05:04:00,
2013-01-24 23:19:00,58.0,56.0,30.26,SW,233,0.0,-999.0,92,-99.99,,,0.00,weatherlink.com 1.10,2013-01-25 05:19:00,
2013-01-24 23:34:00,57.2,55.0,30.26,SW,233,0.0,-999.0,93,-99.99,,,0.00,weatherlink.com 1.10,2013-01-25 05:34:00,
2013-01-24 23:49:00,56.4,55.0,30.26,SW,234,0.0,-999.0,94,-99.99,,,0.00,weatherlink.com 1.10,2013-01-25 05:49:00,